This is the latest recevied weather packets stored in our database for station/object AD8IZ-13. If no packets are shown the sender has not sent any weather packets the latest 1 day(s).
| Time | Temp. | Humidity | Pressure | Rain* | Wind** | Luminosity | Snow |
|---|---|---|---|---|---|---|---|
| 1778009720 | 20.56° C | 68% | 1007.7 hPa | 0 mm | 0.89 m/s, 194° | 198 W/m² | - |
| 1778009121 | 20.56° C | 67% | 1007.9 hPa | 0 mm | 0.89 m/s, 189° | 136 W/m² | - |
| 1778008518 | 20.56° C | 68% | 1008 hPa | 0 mm | 0.45 m/s, 185° | 108 W/m² | - |
| 1778007918 | 20.56° C | 67% | 1008.1 hPa | 0 mm | 0.45 m/s, 179° | 169 W/m² | - |
| 1778007318 | 20° C | 67% | 1008.2 hPa | 0 mm | 0.89 m/s, 183° | 158 W/m² | - |
| 1778006721 | 20° C | 67% | 1008.3 hPa | 0 mm | 0.89 m/s, 207° | 135 W/m² | - |
| 1778006118 | 20° C | 67% | 1008.3 hPa | 0 mm | 0.89 m/s, 197° | 135 W/m² | - |
| 1778005519 | 20° C | 68% | 1008.2 hPa | 0 mm | 0.45 m/s, 185° | 96 W/m² | - |
| 1778004924 | 20.56° C | 66% | 1008.1 hPa | 0 mm | 1.34 m/s, 182° | 69 W/m² | - |
| 1778004319 | 20.56° C | 66% | 1008.1 hPa | 0 mm | 1.34 m/s, 184° | 154 W/m² | - |
| 1778003719 | 20.56° C | 66% | 1008.1 hPa | 0 mm | 0.89 m/s, 189° | 90 W/m² | - |
| 1778003122 | 21.11° C | 66% | 1008.1 hPa | 0 mm | 0.89 m/s, 208° | 109 W/m² | - |
| 1778002520 | 21.11° C | 65% | 1008.1 hPa | 0 mm | 1.34 m/s, 195° | 78 W/m² | - |
| 1778001920 | 21.67° C | 64% | 1008.2 hPa | 0 mm | 0.89 m/s, 195° | 168 W/m² | - |
| 1778001320 | 22.22° C | 64% | 1008.2 hPa | 0 mm | 0.89 m/s, 204° | 287 W/m² | - |
| 1778000717 | 22.22° C | 64% | 1008.2 hPa | 0 mm | 1.34 m/s, 192° | 512 W/m² | - |
| 1778000117 | 22.78° C | 62% | 1008.1 hPa | 0 mm | 1.34 m/s, 214° | 495 W/m² | - |
| 1777999520 | 22.22° C | 63% | 1008.1 hPa | 0 mm | 0.89 m/s, 180° | 692 W/m² | - |
| 1777998920 | 22.22° C | 63% | 1008.2 hPa | 0 mm | 1.34 m/s, 185° | 768 W/m² | - |
| 1777998325 | 22.22° C | 62% | 1008.3 hPa | 0 mm | 1.34 m/s, 190° | 505 W/m² | - |
| 1777997719 | 22.22° C | 63% | 1008.5 hPa | 0 mm | 1.34 m/s, 186° | 841 W/m² | - |
| 1777997118 | 21.67° C | 64% | 1008.6 hPa | 0 mm | 1.79 m/s, 194° | 725 W/m² | - |
| 1777996520 | 21.67° C | 65% | 1008.6 hPa | 0 mm | 0.89 m/s, 209° | 757 W/m² | - |
| 1777995918 | 21.11° C | 66% | 1008.5 hPa | 0 mm | 1.34 m/s, 192° | 752 W/m² | - |
| 1777995319 | 20.56° C | 68% | 1008.5 hPa | 0 mm | 1.34 m/s, 194° | 742 W/m² | - |
* Rain latest hour (hover to see other rain measurements)
** Current wind speed in m/s (hover to see current wind gust speed)